When you browse on this site, cookies collect data to enhance your experience and personalize the content and advertising you see.
Visit our Privacy Policy to learn more. By continuing to use the site, you agree to this use of cookies and data.
  • In Latvia
  • List of Countries
  • For 7 days
  • Water Temperature
  • Satellite Maps
  • Weather Map
  • Weather Widgets
  • user-avatar
    Login

    Hourly Weather Bauska

    Today, 22 February, Friday

    Time Temperature Precipitation Wind Pressure Humidity
    00:00 -8°C° 0 mm 4 mps 768 mmHg 56%
    01:00 -8°C° 0 mm 4 mps 769 mmHg 57%
    02:00 -9°C° 0 mm 4 mps 770 mmHg 53%
    03:00 -9°C° 0 mm 4 mps 770 mmHg 54%
    04:00 -9°C° 0 mm 4 mps 771 mmHg 55%
    05:00 -9°C° 0 mm 4 mps 771 mmHg 56%
    06:00 -9°C° 0 mm 4 mps 772 mmHg 57%
    07:00 -9°C° 0 mm 4 mps 773 mmHg 58%
    08:00 -9°C° 0 mm 4 mps 774 mmHg 58%
    09:00 -8°C° 0 mm 4 mps 774 mmHg 54%
    10:00 -8°C° 0 mm 4 mps 775 mmHg 49%
    11:00 -7°C° 0 mm 5 mps 776 mmHg 45%
    12:00 -6°C° 0 mm 5 mps 776 mmHg 42%
    13:00 -5°C° 0 mm 5 mps 776 mmHg 39%
    14:00 -5°C° 0 mm 5 mps 776 mmHg 37%
    15:00 -5°C° 0 mm 5 mps 777 mmHg 39%
    16:00 -4°C° 0 mm 4 mps 777 mmHg 41%
    17:00 -4°C° 0 mm 4 mps 777 mmHg 44%
    18:00 -5°C° 0 mm 3 mps 778 mmHg 47%
    19:00 -5°C° 0 mm 3 mps 778 mmHg 51%
    20:00 -6°C° 0 mm 3 mps 779 mmHg 54%
    21:00 -5°C° 0 mm 2 mps 779 mmHg 56%
    22:00 -5°C° 0 mm 2 mps 779 mmHg 57%
    23:00 -4°C° 0 mm 1 mps 780 mmHg 59%

    Tomorrow, 23 February, Saturday

    Time Temperature Precipitation Wind Pressure Humidity
    00:00 -4°C° 0 mm 1 mps 780 mmHg 59%
    01:00 -4°C° 0 mm 1 mps 780 mmHg 59%
    02:00 -4°C° 0 mm 1 mps 780 mmHg 59%
    03:00 -6°C° 0 mm 2 mps 779 mmHg 57%
    04:00 -6°C° 0 mm 2 mps 779 mmHg 55%
    05:00 -6°C° 0 mm 2 mps 779 mmHg 53%
    06:00 -7°C° 0 mm 3 mps 779 mmHg 49%
    07:00 -6°C° 0 mm 3 mps 778 mmHg 44%
    08:00 -7°C° 0 mm 4 mps 778 mmHg 40%
    09:00 -5°C° 0 mm 4 mps 778 mmHg 42%
    10:00 -5°C° 0 mm 5 mps 777 mmHg 45%
    11:00 -5°C° 0 mm 5 mps 777 mmHg 48%
    12:00 -4°C° 0 mm 5 mps 777 mmHg 50%
    13:00 -2°C° 0 mm 5 mps 776 mmHg 53%
    14:00 -1°C° 0 mm 5 mps 776 mmHg 55%
    15:00 -3°C° 0.1 mm 6 mps 775 mmHg 64%
    16:00 -3°C° 0.1 mm 6 mps 775 mmHg 72%
    17:00 -3°C° 0.1 mm 6 mps 774 mmHg 80%
    18:00 -2°C° 0.1 mm 5 mps 774 mmHg 78%
    19:00 -2°C° 0.1 mm 5 mps 774 mmHg 77%
    20:00 -2°C° 0.1 mm 5 mps 773 mmHg 75%
    21:00 -2°C° 0 mm 4 mps 773 mmHg 78%
    22:00 -2°C° 0 mm 4 mps 773 mmHg 81%
    23:00 -1°C° 0 mm 3 mps 773 mmHg 84%

    Day after tomorrow, 24 February, Sunday

    Time Temperature Precipitation Wind Pressure Humidity
    00:00 -1°C° 0 mm 3 mps 772 mmHg 87%
    01:00 -1°C° 0 mm 3 mps 772 mmHg 90%
    02:00 -2°C° 0 mm 3 mps 772 mmHg 93%
    03:00 -2°C° 0 mm 2 mps 772 mmHg 94%
    04:00 -2°C° 0 mm 2 mps 772 mmHg 94%
    05:00 -2°C° 0 mm 2 mps 772 mmHg 95%
    06:00 -2°C° 0 mm 2 mps 772 mmHg 95%
    07:00 -2°C° 0 mm 2 mps 772 mmHg 95%
    08:00 -2°C° 0 mm 2 mps 772 mmHg 96%
    09:00 +1°C° 0 mm 2 mps 772 mmHg 93%
    10:00 +1°C° 0 mm 3 mps 772 mmHg 89%
    11:00 +2°C° 0 mm 3 mps 772 mmHg 86%
    12:00 +3°C° 0 mm 3 mps 771 mmHg 85%
    13:00 +3°C° 0 mm 3 mps 771 mmHg 83%
    14:00 +4°C° 0 mm 3 mps 771 mmHg 82%
    15:00 +3°C° 0 mm 3 mps 771 mmHg 86%
    16:00 +3°C° 0 mm 3 mps 771 mmHg 90%
    17:00 +2°C° 0 mm 3 mps 770 mmHg 94%
    18:00 +2°C° 0 mm 3 mps 770 mmHg 94%
    19:00 +3°C° 0 mm 2 mps 770 mmHg 95%
    20:00 +2°C° 0 mm 2 mps 770 mmHg 96%
    21:00 +2°C° 0 mm 2 mps 770 mmHg 96%
    22:00 +2°C° 0 mm 2 mps 770 mmHg 96%
    23:00 +2°C° 0 mm 2 mps 770 mmHg 96%

    25 February, Monday

    Time Temperature Precipitation Wind Pressure Humidity
    00:00 +2°C° 0 mm 2 mps 770 mmHg 96%
    01:00 +2°C° 0 mm 2 mps 771 mmHg 96%
    02:00 +1°C° 0 mm 3 mps 771 mmHg 97%
    03:00 +1°C° 0 mm 3 mps 771 mmHg 97%
    04:00 +1°C° 0 mm 3 mps 771 mmHg 97%
    05:00 -1°C° 0 mm 4 mps 771 mmHg 97%
    06:00 0°C° 0 mm 3 mps 772 mmHg 96%
    07:00 0°C° 0 mm 3 mps 772 mmHg 95%
    08:00 0°C° 0 mm 3 mps 772 mmHg 94%
    09:00 +1°C° 0 mm 3 mps 772 mmHg 90%
    10:00 +1°C° 0 mm 4 mps 772 mmHg 85%
    11:00 +4°C° 0 mm 4 mps 772 mmHg 81%
    12:00 +4°C° 0 mm 4 mps 772 mmHg 78%
    13:00 +5°C° 0 mm 4 mps 772 mmHg 75%
    14:00 +6°C° 0 mm 4 mps 772 mmHg 72%
    15:00 +5°C° 0 mm 3 mps 771 mmHg 76%
    16:00 +4°C° 0 mm 3 mps 771 mmHg 81%
    17:00 +5°C° 0 mm 2 mps 770 mmHg 85%
    18:00 +3°C° 0 mm 3 mps 770 mmHg 86%
    19:00 +3°C° 0 mm 3 mps 769 mmHg 88%
    20:00 +2°C° 0 mm 3 mps 768 mmHg 89%
    21:00 +1°C° 0 mm 4 mps 767 mmHg 90%
    22:00 +1°C° 0 mm 4 mps 766 mmHg 91%
    23:00 0°C° 0 mm 4 mps 766 mmHg 92%

    26 February, Tuesday

    Time Temperature Precipitation Wind Pressure Humidity
    00:00 +1°C° 0 mm 4 mps 765 mmHg 91%
    01:00 +1°C° 0 mm 4 mps 764 mmHg 91%
    02:00 +2°C° 0 mm 3 mps 763 mmHg 91%
    03:00 +1°C° 0 mm 4 mps 763 mmHg 90%
    04:00 +1°C° 0 mm 5 mps 762 mmHg 90%
    05:00 +1°C° 0 mm 6 mps 762 mmHg 89%
    06:00 +1°C° 0 mm 6 mps 762 mmHg 84%
    07:00 +1°C° 0 mm 6 mps 762 mmHg 79%
    08:00 +1°C° 0 mm 6 mps 762 mmHg 75%
    09:00 +2°C° 0 mm 7 mps 762 mmHg 70%
    10:00 +2°C° 0 mm 8 mps 761 mmHg 66%
    11:00 +3°C° 0 mm 10 mps 761 mmHg 62%
    12:00 +3°C° 0 mm 10 mps 761 mmHg 63%
    13:00 +3°C° 0 mm 10 mps 761 mmHg 64%
    14:00 +5°C° 0 mm 10 mps 761 mmHg 64%
    15:00 +3°C° 0 mm 9 mps 762 mmHg 67%
    16:00 +4°C° 0 mm 8 mps 762 mmHg 69%
    17:00 +3°C° 0 mm 7 mps 763 mmHg 71%
    18:00 +3°C° 0 mm 7 mps 764 mmHg 72%
    19:00 +2°C° 0 mm 6 mps 764 mmHg 74%
    20:00 +2°C° 0 mm 6 mps 765 mmHg 75%
    21:00 +1°C° 0 mm 5 mps 765 mmHg 77%
    22:00 +1°C° 0 mm 5 mps 766 mmHg 80%
    23:00 0°C° 0 mm 4 mps 766 mmHg 82%

    27 February, Wednesday

    Time Temperature Precipitation Wind Pressure Humidity
    00:00 -1°C° 0 mm 4 mps 766 mmHg 84%
    01:00 0°C° 0 mm 3 mps 767 mmHg 87%
    02:00 -1°C° 0 mm 3 mps 767 mmHg 90%
    03:00 -1°C° 0 mm 3 mps 767 mmHg 90%
    04:00 -1°C° 0 mm 3 mps 767 mmHg 90%
    05:00 -1°C° 0 mm 3 mps 767 mmHg 90%
    06:00 -1°C° 0 mm 3 mps 767 mmHg 90%
    07:00 -1°C° 0 mm 2 mps 766 mmHg 89%
    08:00 -1°C° 0 mm 2 mps 766 mmHg 88%
    09:00 +1°C° 0 mm 3 mps 765 mmHg 80%
    10:00 +2°C° 0 mm 3 mps 765 mmHg 71%
    11:00 +4°C° 0 mm 4 mps 764 mmHg 63%
    12:00 +5°C° 0 mm 4 mps 763 mmHg 60%
    13:00 +6°C° 0 mm 5 mps 762 mmHg 57%
    14:00 +7°C° 0 mm 5 mps 761 mmHg 54%
    15:00 +7°C° 0 mm 5 mps 760 mmHg 59%
    16:00 +6°C° 0 mm 4 mps 759 mmHg 64%
    17:00 +5°C° 0 mm 4 mps 758 mmHg 69%
    18:00 +5°C° 0 mm 5 mps 757 mmHg 75%
    19:00 +3°C° 0 mm 6 mps 756 mmHg 80%
    20:00 +3°C° 0 mm 7 mps 755 mmHg 86%
    21:00 +3°C° 0 mm 6 mps 753 mmHg 86%
    22:00 +3°C° 0 mm 6 mps 752 mmHg 86%
    23:00 +3°C° 0 mm 5 mps 751 mmHg 87%
    Show more